Weather History for KLTS - September, 2013

Change the Weather History Date:

Tuesday, September 10, 2013

  Actual Average Record
Temperature  
Mean Temperature 82 °F -  
Max Temperature 93 °F 87 °F 98 °F (1999)
Min Temperature 70 °F 64 °F 50 °F (2001)
Cooling Degree Days 16    
Growing Degree Days 32 (Base 50)    
Moisture  
Dew Point 63 °F    
Average Humidity 53    
Maximum Humidity 82    
Minimum Humidity 34    
Precipitation  
Precipitation 0.00 in - - ()
Sea Level Pressure  
Sea Level Pressure 30.01 in    
Wind  
Wind Speed 11 mph (SSE)    
Max Wind Speed 24 mph    
Max Gust Speed 28 mph    
Visibility 10 miles    
Events      
Averages and records for this station are not official NWS values.
T = Trace of Precipitation, MM = Missing Value Source: NWS Daily Summary

Daily Weather History Graph

Daily Weather History Graph

Search for Another Location

Airport or City:

Trip Planner

Search our weather history database for the weather conditions in past years. The results will help you decide how hot, cold, wet, or windy it might be!

Date:

Astronomy

Sep. 10, 2013 Rise Set
Actual Time 7:16 AM CDT 7:50 PM CDT
Civil Twilight 6:51 AM CDT 8:15 PM CDT
Nautical Twilight 6:21 AM CDT 8:45 PM CDT
Astronomical Twilight 5:50 AM CDT 9:16 PM CDT
Moon 12:29 PM CDT (9/10) 11:10 PM CDT (9/10)
Length of Visible Light 13h 24m
Length of Day
12h 33m
Waxing Crescent, 28% of the Moon is Illuminated
Sep 10
Waxing Crescent
Sep 12
First Quarter
Sep 19
Full
Sep 26
Last Quarter
Oct 4
New

Hourly Weather History & Observations

Time (CDT) Temp. Heat Index Dew Point Humidity Pressure Visibility Wind Dir Wind Speed Gust Speed Precip Events Conditions
12:58 AM 74.8 °F - 59.5 °F 59% 29.92 in 10.0 mi SE 8.1 mph - N/A   Clear
1:58 AM 76.5 °F - 61.0 °F 59% 29.93 in 10.0 mi SE 9.2 mph - N/A   Clear
2:58 AM 76.6 °F - 62.2 °F 61% 29.94 in 10.0 mi SSE 9.2 mph - N/A   Clear
3:58 AM 76.5 °F - 64.9 °F 67% 29.95 in 10.0 mi SSE 8.1 mph - N/A   Clear
4:58 AM 75.4 °F - 65.1 °F 70% 29.96 in 10.0 mi SSE 9.2 mph - N/A   Clear
5:58 AM 73.4 °F - 65.1 °F 75% 29.97 in 10.0 mi SSE 8.1 mph - N/A   Clear
6:58 AM 70.5 °F - 64.8 °F 82% 30.00 in 10.0 mi ESE 8.1 mph - N/A   Clear
7:58 AM 71.8 °F - 64.8 °F 78% 30.02 in 10.0 mi ESE 8.1 mph - N/A   Partly Cloudy
8:58 AM 75.9 °F - 65.3 °F 70% 30.04 in 10.0 mi SSE 11.5 mph - N/A   Clear
9:56 AM 80.6 °F 82.7 °F 66.2 °F 61% 30.10 in 10.0 mi SSE 12.7 mph - N/A   Partly Cloudy
10:56 AM 82.4 °F 84.6 °F 66.2 °F 58% 30.10 in 10.0 mi South 10.4 mph - N/A   Scattered Clouds
11:56 AM 86.0 °F 87.3 °F 64.4 °F 48% 30.11 in 10.0 mi SSE 15.0 mph 23.0 mph N/A   Clear
12:28 PM 87.8 °F 89.4 °F 64.4 °F 46% 30.10 in 10.0 mi SSE 11.5 mph 21.9 mph N/A   Clear
12:58 PM 89.8 °F 90.7 °F 63.3 °F 41% 30.04 in 10.0 mi South 13.8 mph 26.5 mph N/A   Partly Cloudy
1:58 PM 90.5 °F 90.7 °F 61.7 °F 38% 30.02 in 10.0 mi SSE 16.1 mph 26.5 mph N/A   Partly Cloudy
2:58 PM 91.9 °F 92.2 °F 61.5 °F 36% 30.00 in 10.0 mi SE 12.7 mph 24.2 mph N/A   Partly Cloudy
3:14 PM 91.4 °F 92.1 °F 62.6 °F 38% 30.04 in 10.0 mi SSE 13.8 mph 24.2 mph N/A   Mostly Cloudy
3:24 PM 91.4 °F 92.1 °F 62.6 °F 38% 30.04 in 10.0 mi SSE 17.3 mph 24.2 mph N/A   Scattered Clouds
3:58 PM 91.4 °F 92.1 °F 62.6 °F 38% 29.98 in 10.0 mi SSE 15.0 mph 25.3 mph N/A   Partly Cloudy
4:58 PM 91.6 °F 91.6 °F 61.2 °F 36% 29.95 in 10.0 mi SE 15.0 mph - N/A   Partly Cloudy
5:58 PM 93.0 °F 93.0 °F 60.4 °F 34% 29.95 in 10.0 mi SSE 24.2 mph 27.6 mph N/A   Scattered Clouds
6:32 PM 89.6 °F 91.1 °F 64.4 °F 43% 30.00 in 10.0 mi SSW 12.7 mph - N/A   Clear
6:58 PM 88.7 °F 88.8 °F 61.5 °F 40% 29.97 in 10.0 mi SSE 18.4 mph - N/A   Partly Cloudy
7:58 PM 85.5 °F 86.3 °F 63.0 °F 47% 29.97 in 10.0 mi SSE 9.2 mph - N/A   Clear
8:58 PM 81.7 °F 83.3 °F 64.4 °F 56% 29.99 in 10.0 mi SSE 4.6 mph - N/A   Partly Cloudy
9:58 PM 83.5 °F 84.9 °F 64.4 °F 52% 30.06 in 10.0 mi SSE 11.5 mph - N/A   Scattered Clouds
10:58 PM 81.9 °F 83.4 °F 64.4 °F 55% 30.07 in 10.0 mi SSE 10.4 mph - N/A   Partly Cloudy
11:58 PM 77.5 °F - 63.9 °F 63% 30.04 in 10.0 mi SSE 6.9 mph - N/A   Clear